Regional Weather Roundup
Issued by NWS

Home | Current Version | Previous Version | Graphics & Text | Print | Product List | Glossary On
Versions: 1 2 3 4 5 6 7 8 9 10 11 12 13 14 15 16 17 18 19 20 21 22 23 24 25 26 27 28
000
ASUS45 KTFX 231010
RWRMT
MONTANA REGIONAL WEATHER ROUNDUP
NATIONAL WEATHER SERVICE GREAT FALLS MT
400 AM MDT SAT SEP 23 2017

NOTE: "FAIR" INDICATES FEW OR NO CLOUDS BELOW 12000 FEET WITH NO
SIGNIFICANT WEATHER AND/OR OBSTRUCTIONS TO VISIBILITY.

MTZ001>007-043-231100-
WEST OF THE DIVIDE

CITY           SKY/WX    TMP DP  RH WIND       PRES   REMARKS
KALISPELL      CLOUDY    44  37  76 S5        30.04S
MISSOULA       CLOUDY    35  34  96 CALM      30.07F
BUTTE          CLOUDY    31  30  96 E3        30.04S
MULLAN PASS    CLOUDY    32  26  78 SW5       30.01F
ANACONDA         N/A     32  28  86 CALM      30.05R
DEER LODGE       N/A     34  30  86 CALM      30.08R
EUREKA           N/A     45  34  65 CALM      30.03F
HAMILTON         N/A     36  34  93 CALM      30.07
LIBBY            N/A     41  37  87 CALM      30.03S
PLAINS           N/A     41  36  82 CALM      30.05
$$

MTZ008-052>055-231100-
SOUTHWEST MONTANA

CITY           SKY/WX    TMP DP  RH WIND       PRES   REMARKS
BOZEMAN        CLOUDY    37  35  92 CALM      30.06S
DILLON         MOCLDY    33  31  92 NW3       30.02F
W YELLOWSTONE  CLOUDY    30  30 100 MISG      30.02S
ENNIS          CLOUDY    34  34 100 SE5       30.08S
THREE FORKS      N/A     37  34  89 CALM      30.04F
TWIN BRIDGES     N/A     36  30  79 CALM      30.02
$$

MTZ009-010-012-014-046-048-049-054-231100-
EAST SLOPES AND CENTRAL MONTANA

CITY           SKY/WX    TMP DP  RH WIND       PRES   REMARKS
CUT BANK       MOCLDY    32  32 100 SE5       30.04S FOG
GREAT FALLS    CLOUDY    36  34  92 SW3       30.07S
MALMSTROM AFB  CLOUDY    37  37 100 CALM      30.08S
HELENA         CLOUDY    37  34  89 NW3       30.07R
BOWMANS CRNR   LGT RAIN  32  32 100 S9        30.03F FOG     WCI  24
CHOTEAU          N/A     34  34 100 S6        30.07S WCI  29
FAIRFIELD      MOCLDY    35  33  92 SE5       30.04F
POWER          MOCLDY    35  34  98 S5        30.05F
RAYNESFORD     LGT RAIN  36  36 100 NW3       30.07S FOG
ULM            CLOUDY    35  35  99 CALM      30.08S
$$

MTZ011-013-016-021-045-047-050-051-231100-
NORTH CENTRAL MONTANA

CITY           SKY/WX    TMP DP  RH WIND       PRES   REMARKS
HAVRE          CLOUDY    42  37  82 CALM      30.07S
LEWISTOWN      LGT RAIN  37  36  96 E5        30.05F
N BAR RANCH    CLOUDY    34  34 100 CALM      30.08S
CHINOOK          N/A     43  36  75 CALM      30.08S
DENTON         DRIZZLE   39  38  95 N3        30.04S
GEYSER         MOCLDY    37  37 100 NE3       30.05S FOG
JUDITH GAP     FLURRIES  33  33  96 S3        30.04F
WINIFRED       DRIZZLE   38  38  99 E6        30.06S
$$

MTZ017>020-022>027-061-062-231100-
NORTHEAST MONTANA

CITY           SKY/WX    TMP DP  RH WIND       PRES   REMARKS
GLASGOW        CLOUDY    44  42  93 CALM      30.09R
JORDAN           N/A     44  41  89 CALM      30.08S
SIDNEY         CLOUDY    42  40  92 N5        30.09S
WOLF POINT     CLOUDY    41  38  89 E3        30.09F
MALTA          CLOUDY    43  41  93 CALM      30.09R
POPLAR           N/A     36  34  93 CALM      30.11R
SCOBEY           N/A     36  31  82 CALM      30.05
$$

MTZ028>42-056>058-231100-
SOUTHCENTRAL AND SOUTHEAST MONTANA

CITY           SKY/WX    TMP DP  RH WIND       PRES   REMARKS
BAKER          CLOUDY    42  36  79 N7        30.09R
BILLINGS       CLOUDY    39  38  96 NE13      30.04S WCI  31
LIVINGSTON     CLOUDY    34  32  92 SE3       30.04S
MILES CITY     CLOUDY    43  37  79 NE3       30.08S
BIG TIMBER     FOG       32  32 100 CALM      30.08  VSB 1/2
EKALAKA          N/A     39  35  85 NE3       30.05
HARLOWTON      LGT RAIN  34  34  97 MISG      30.06S
LAUREL           N/A     39  39 100 NE7       30.06S
$$

REGIONAL REPORTS...DAKOTAS

CITY           SKY/WX    TMP DP  RH WIND       PRES   REMARKS
WILLISTON      CLOUDY    44  41  89 CALM      30.08F
MINOT          CLOUDY    48  45  89 NW9       30.05S
BEACH          CLOUDY    41  39  93 N8        30.11R
CROSBY         CLOUDY    43  43 100 NW7       30.09S
TIOGA          CLOUDY    43  43 100 N6G12     30.08S
WATFORD CITY   CLOUDY    45  43  93 N5        30.07F
BISMARCK       LGT RAIN  49  47  93 NW9       30.06R
GRAND FORKS    CLOUDY    51  50  96 NW14      29.95R
FARGO          CLOUDY    53  52  96 NW16      29.92R
BUFFALO SD       N/A     42  40  92 CALM      30.02R
$$

REGIONAL REPORTS...WYOMING/IDAHO/WASHINGTON

CITY           SKY/WX    TMP DP  RH WIND       PRES   REMARKS
GILLETTE       CLOUDY    40  36  86 N12       30.04F
SHERIDAN       CLOUDY    40  40 100 NE3       30.05S
BUFFALO WY     CLOUDY    38  35  89 SE5       30.05F
CODY           CLOUDY    36  35  96 CALM      30.05R
IDAHO FALLS    CLEAR     34  31  88 CALM      30.03S
SALMON         CLOUDY    42  34  73 E3        30.03S
BOISE          PTCLDY    39  35  86 SE5       30.01S
SPOKANE        CLOUDY    45  41  86 S6        30.03S
$$

REGIONAL REPORTS...ALBERTA

CITY           SKY/WX    TMP DP  RH WIND       PRES   REMARKS
EDMONTON       CLOUDY    39  39 100 E2        30.05S
CALGARY        CLOUDY    37  34  87 S6        30.01F
LETHBRIDGE     MOCLDY    37  34  87 S6        30.03F
MEDICINE HAT   CLOUDY    41  36  81 CALM      30.06R
$$

REGIONAL REPORTS...SASKATCHEWAN

CITY           SKY/WX    TMP DP  RH WIND       PRES   REMARKS
SWIFT CURRENT    N/A     37  32  81 SW6       30.06F
REGINA         CLOUDY    41  39  93 W6        30.08F
SASKATOON      CLOUDY    41  39  93 W3        30.10R
$$




USA.gov is the U.S. government's official web portal to all federal, state and local government web resources and services.